Location: Elbart
(49.6135°N, 11.9134°E)
Time: 22:09:53
(UTC+00:00)

SL-08 R/B - Pass Details

Date: 09 April 2020
Orbit: 951 x 1017 km, 82.9° (Epoch: 02 June)

Event Time Altitude Azimuth Distance (km) Brightness Sun altitude
Rises 20:25:19 0° 349° (N) 3,643 8.4 -21.7°
Reaches altitude 10° 20:27:48 10° 348° (NNW) 2,697 7.6 -22.0°
Maximum altitude 20:33:58 79° 264° (W) 986 4.5 -22.7°
Enters shadow 20:36:45 35° 183° (S) 1,508 5.1 -23.0°
